Enid Vance AFB, OK

5:17 PM CDT on September 20, 2017 (GMT -0500)
Vance Air Force Base

Weather History for KEND - February, 2014

Change the Weather History Date:

Friday, February 28, 2014

  Actual Average Record
Temperature  
Mean Temperature 49 °F -  
Max Temperature 59 °F 49 °F 82 °F (2006)
Min Temperature 37 °F 29 °F 15 °F (2015)
Degree Days  
Heating Degree Days 16    
Moisture  
Dew Point 41 °F    
Average Humidity 84    
Maximum Humidity 100    
Minimum Humidity 52    
Precipitation  
Precipitation 0.02 in - - ()
Sea Level Pressure  
Sea Level Pressure 29.78 in    
Wind  
Wind Speed 12 mph (East)    
Max Wind Speed 18 mph    
Max Gust Speed 21 mph    
Visibility 8 miles    
Events Rain    
Averages and records for this station are not official NWS values.
T = Trace of Precipitation, MM = Missing Value Source: NWS Daily Summary

Daily Weather History Graph

Daily Weather History Graph

Search for Another Location

Airport or City:

Trip Planner

Search our weather history database for the weather conditions in past years. The results will help you decide how hot, cold, wet, or windy it might be!

Date:

Astronomy

Feb. 28, 2014 Rise Set
Actual Time 7:03 AM CST 6:25 PM CST
Civil Twilight 6:37 AM CST 6:51 PM CST
Nautical Twilight 6:07 AM CST 7:21 PM CST
Astronomical Twilight 5:37 AM CST 7:51 PM CST
Moon 6:18 AM CST (2/28) 6:03 PM CST (2/28)
Length of Visible Light 12h 13m
Length of Day
11h 22m
Waning Crescent, 1% of the Moon is Illuminated
Feb 28
Waning Crescent
Mar 1
New
Mar 8
First Quarter
Mar 16
Full
Mar 23
Last Quarter

Hourly Weather History & Observations

Time (CST) Temp. Windchill Dew Point Humidity Pressure Visibility Wind Dir Wind Speed Gust Speed Precip Events Conditions
12:58 AM 40.1 °F 32.7 °F 23.7 °F 52% 29.75 in 10.0 mi SE 12.7 mph - N/A   Clear
1:58 AM 40.6 °F 32.3 °F 24.6 °F 53% 29.73 in 10.0 mi SE 16.1 mph - N/A   Mostly Cloudy
2:58 AM 40.5 °F 32.8 °F 26.2 °F 57% 29.70 in 10.0 mi SE 13.8 mph - N/A   Partly Cloudy
3:55 AM 41.0 °F 32.2 °F 28.4 °F 61% 29.62 in 7.0 mi ESE 18.4 mph - N/A Rain Light Rain
4:55 AM 39.2 °F 30.8 °F 35.6 °F 87% 29.60 in 7.0 mi SE 15.0 mph - N/A Rain Light Rain
5:55 AM 39.2 °F 32.0 °F 37.4 °F 93% 29.62 in 7.0 mi ESE 11.5 mph - N/A Rain Light Rain
6:55 AM 39.2 °F 33.0 °F 39.2 °F 100% 29.66 in 7.0 mi SE 9.2 mph - N/A Rain Light Rain
7:55 AM 39.2 °F 32.5 °F 39.2 °F 100% 29.67 in 7.0 mi SE 10.4 mph - N/A   Mostly Cloudy
8:56 AM 41.0 °F 33.1 °F 41.0 °F 100% 29.68 in 10.0 mi ESE 15.0 mph 20.7 mph N/A   Mostly Cloudy
9:55 AM 44.6 °F 37.4 °F 44.6 °F 100% 29.71 in 10.0 mi SE 16.1 mph - N/A   Scattered Clouds
10:55 AM 48.2 °F - 42.8 °F 82% 29.72 in 10.0 mi SE 15.0 mph - N/A   Mostly Cloudy
11:24 AM 50.0 °F - 42.8 °F 76% 29.69 in 10.0 mi SSE 11.5 mph - N/A   Scattered Clouds
11:55 AM 51.8 °F - 42.8 °F 71% 29.70 in 10.0 mi SSE 13.8 mph - N/A   Scattered Clouds
12:55 PM 53.6 °F - 42.8 °F 67% 29.73 in 10.0 mi Variable 6.9 mph - N/A   Scattered Clouds
1:55 PM 57.2 °F - 42.8 °F 59% 29.70 in 10.0 mi ENE 9.2 mph - N/A   Scattered Clouds
2:55 PM 59.0 °F - 42.8 °F 55% 29.72 in 10.0 mi ESE 5.8 mph - N/A   Scattered Clouds
3:55 PM 59.0 °F - 44.6 °F 59% 29.74 in 10.0 mi SE 5.8 mph - N/A   Scattered Clouds
4:55 PM 59.0 °F - 44.6 °F 59% 29.76 in 10.0 mi East 4.6 mph - N/A   Partly Cloudy
5:55 PM 57.2 °F - 42.8 °F 59% 29.78 in 10.0 mi NE 8.1 mph - N/A   Partly Cloudy
6:52 PM 50.0 °F - 44.6 °F 82% 29.80 in 5.0 mi NE 11.5 mph - N/A   Haze
6:58 PM 49.6 °F - 45.1 °F 84% 29.83 in 5.0 mi NE 12.7 mph - N/A   Haze
7:13 PM 48.2 °F - 44.6 °F 87% 29.82 in 5.0 mi NE 10.4 mph - N/A   Clear
7:28 PM 48.2 °F - 46.4 °F 93% 29.82 in 5.0 mi NE 12.7 mph - N/A   Clear
7:38 PM 48.2 °F - 46.4 °F 93% 29.84 in 6.0 mi NE 12.7 mph - N/A   Clear
7:53 PM 46.4 °F 40.1 °F 46.4 °F 100% 29.84 in 5.0 mi NNE 15.0 mph - N/A   Clear
7:58 PM 46.6 °F - 45.9 °F 97% 29.87 in 4.0 mi NNE 15.0 mph - N/A   Clear
8:08 PM 46.4 °F 41.1 °F 46.4 °F 100% 29.85 in 5.0 mi NNE 11.5 mph - N/A   Clear
8:13 PM 46.4 °F 40.7 °F 46.4 °F 100% 29.86 in 5.0 mi NE 12.7 mph - N/A   Clear
8:58 PM 44.8 °F 39.4 °F 44.6 °F 99% 29.90 in 4.0 mi NE 10.4 mph - N/A   Clear
9:23 PM 44.6 °F 39.2 °F 44.6 °F 100% 29.90 in 5.0 mi ENE 10.4 mph - N/A   Clear
9:38 PM 42.8 °F 37.0 °F 42.8 °F 100% 29.91 in 7.0 mi ENE 10.4 mph - N/A   Clear
9:58 PM 42.1 °F 36.1 °F 41.7 °F 99% 29.93 in 8.0 mi ENE 10.4 mph - N/A   Clear
10:33 PM 41.0 °F 34.7 °F 41.0 °F 100% 29.92 in 10.0 mi East 10.4 mph - N/A   Clear
10:58 PM 40.3 °F 33.9 °F 40.1 °F 99% 29.95 in 10.0 mi East 10.4 mph - N/A   Clear
11:58 PM 37.4 °F 32.1 °F 37.4 °F 100% 29.96 in 10.0 mi ENE 6.9 mph - N/A   Clear